Regional Weather Roundup
Issued by NWS

Home | Current Version | Previous Version | Text Only | Print | Product List | Glossary On
Versions: 1 2 3 4 5 6 7 8 9 10 11 12 13 14 15 16 17 18 19 20 21 22 23 24 25 26 27 28 29 30 31 32 33 34 35 36 37 38 39 40 41 42 43 44 45 46 47 48
000
ASUS44 KBMX 041810
RWRAL

ALABAMA REGIONAL WEATHER ROUNDUP
NATIONAL WEATHER SERVICE BIRMINGHAM AL
100 PM CDT TUE AUG 04 2015

NOTE: "FAIR" INDICATES FEW OR NO CLOUDS BELOW 12,000 FEET
WITH NO SIGNIFICANT WEATHER AND/OR OBSTRUCTIONS TO VISIBILITY.

THE REMARK "TC" DENOTES TEMPERATURE IN DEGREES CELSIUS.

ALZ001>011-014-016>018-020-041900-
NORTH ALABAMA

CITY           SKY/WX    TMP DP  RH WIND       PRES   REMARKS
MUSCLE SHOALS  MOSUNNY   96  68  39 VRB5      30.02F HX 101
6HR MIN TEMP:  73; 6HR MAX TEMP:  96;

HUNTSVILLE     PTSUNNY   96  66  37 VRB6      30.01F HX  99
6HR MIN TEMP:  75; 6HR MAX TEMP:  98;

DECATUR        MOSUNNY   94  64  37 CALM      30.01F HX  95
6HR MIN TEMP:  73; 6HR MAX TEMP:  95;

HALEYVILLE     FAIR      94  69  43 CALM      30.06F HX  99
6HR MIN TEMP:  71; 6HR MAX TEMP:  94;

GADSDEN        SUNNY     97  63  32 SE7       29.99F HX  98
6HR MIN TEMP:  70; 6HR MAX TEMP:  97;

$$

ALZ012-013-022-023-030>036-040>044-041900-
WEST CENTRAL ALABAMA

CITY           SKY/WX    TMP DP  RH WIND       PRES   REMARKS
TUSCALOOSA     SUNNY     96  59  29 E5        29.99F HX  95
6HR MIN TEMP:  72; 6HR MAX TEMP:  98;

$$

ALZ015-024>027-033>036-040>044-041900-
CENTRAL ALABAMA

CITY           SKY/WX    TMP DP  RH WIND       PRES   REMARKS
BIRMINGHAM     MOSUNNY   95  64  35 CALM      30.03F HX  97
6HR MIN TEMP:  73; 6HR MAX TEMP:  96;

MONTGOMERY     SUNNY     96  64  34 VRB3      30.00F HX  98
6HR MIN TEMP:  71; 6HR MAX TEMP:  96;

SHELBY CO ARPT SUNNY     93  62  35 W5        30.01F HX  93
6HR MIN TEMP:  72; 6HR MAX TEMP:  94;

MAXWELL AFB    SUNNY     97  61  30 VRB6      29.99F HX  97
6HR MIN TEMP:  72; 6HR MAX TEMP:  97;

GREENVILLE     FAIR      97  57  26 VRB3      30.00F HX  96
6HR MIN TEMP:  70; 6HR MAX TEMP:  99;

$$

ALZ019-021-028-029-037-038-045>048-041900-
EAST CENTRAL ALABAMA

CITY           SKY/WX    TMP DP  RH WIND       PRES   REMARKS
ANNISTON       SUNNY     95  63  34 E7        30.01F HX  96
6HR MIN TEMP:  67; 6HR MAX TEMP:  95;

ALEXANDER CITY MOSUNNY   92  56  29 N5        30.02S HX  90
6HR MIN TEMP:  72; 6HR MAX TEMP:  94;

AUBURN           N/A    N/A N/A N/A MISG        N/A
$$

ALZ051>064-041900-
SOUTHWEST ALABAMA

CITY           SKY/WX    TMP DP  RH WIND       PRES   REMARKS
MOBILE         PTSUNNY   92  72  51 S7        30.02F HX  99
6HR MIN TEMP:  76; 6HR MAX TEMP:  92;

BROOKLEY FIELD MOSUNNY   91  78  65 SE13      30.02F HX 106
6HR MIN TEMP:  77; 6HR MAX TEMP:  92;

EVERGREEN      SUNNY     96  62  32 CALM      30.00F HX  97
6HR MIN TEMP:  70; 6HR MAX TEMP:  98;

$$

ALZ049-050-065>069-041900-
SOUTHEAST ALABAMA

CITY           SKY/WX    TMP DP  RH WIND       PRES   REMARKS
DOTHAN         PTSUNNY   97  65  34 MISG      30.03F HX  99
6HR MIN TEMP:  77; 6HR MAX TEMP:  97;

OZARK          SUNNY     96  66  37 SW6       30.00F HX  99
6HR MIN TEMP:  75; 6HR MAX TEMP:  96;

TROY           SUNNY     96  64  34 S7        30.01F HX  98
6HR MIN TEMP:  71; 6HR MAX TEMP:  97;

EUFAULA        FAIR      97  66  36 CALM      29.99F HX 100
6HR MIN TEMP:  77; 6HR MAX TEMP:  98;

$$


USA.gov is the U.S. government's official web portal to all federal, state and local government web resources and services.